Vertical_Velocity
-1 -1 0 1 0 -0 -1 -1 -1 -0 -1 1 0 -1 -1 -1 -1 -1 -2 -1 -1 -1 -1 -1 0 0 -0 0 -0 -1 -1 -0 -0 -1 -1 -1 -1 -0 0 0 0 -1 -2
-1 -1 1 1 -0 -0 -1 -0 0 -0 0 -0 2 0 -0 -0 -1 -1 -0 -1 -1 -1 -1 -1 -1 -1 0 -1 -1 0 0 -1 0 -0 0 0 -0 -1 -1 -1 -1 -1 -1
-2 -0 1 1 -0 1 0 -0 0 0 1 -0 1 1 -0 1 0 -1 -2 -1 -0 -1 -1 -1 -0 -1 -1 1 0 -1 -1 -1 -2 0 -2 -1 -1 -1 -0 -1 -2 -3 -2
-1 -0 0 0 -0 0 -1 1 1 0 0 1 0 1 0 -0 -0 -0 -0 -1 -0 0 -1 -1 -1 -0 -0 -0 0 -1 -0 -0 -0 -1 0 -1 -1 -1 -2 -2 -1 -1 -1
-2 1 1 1 1 -0 1 1 1 1 1 1 1 1 0 -0 -1 -1 -0 -0 -0 1 1 0 0 0 0 -1 0 -0 0 -0 1 0 -0 1 -0 -1 1 1 0 -0 0
-0 0 1 -0 1 -0 1 -0 -0 1 1 0 0 0 -1 -1 -1 -1 -1 -1 -2 -1 -0 0 -0 0 -1 -2 -1 -2 -1 0 -0 0 -1 -1 0 0 -1 0 0 0 1
-1 -1 -1 -2 -0 -1 -1 2 -0 0 1 1 0 -0 -1 -2 -2 -1 -1 -2 -2 -2 -1 -2 -1 1 2 -2 -1 -2 -1 -1 0 -1 -1 -1 -2 -1 -1 -1 0 -0 -0
-1 -1 -2 -2 -1 -0 -0 -0 2 1 1 1 -0 1 -0 -1 -2 -2 -1 -2 -2 -1 -1 -2 -1 1 2 -1 1 -1 -2 -3 -1 -2 -1 -1 -1 -0 0 -0 0 1 -0
-1 1 -1 -2 -2 -2 -2 -2 -2 1 2 1 0 1 -0 -1 -1 -1 -2 -0 1 -1 -1 -2 -1 1 -0 -1 2 2 0 -1 -0 0 -0 -0 -1 -1 -1 -0 -0 -1 -1
-2 -0 -1 0 1 -2 -1 -1 -1 -0 1 1 0 2 -1 -1 0 -0 -1 -1 0 -2 -2 -1 -1 -2 -0 -4 -0 -1 -1 -0 -0 0 -1 0 -0 -1 -1 -1 -0 -1 -0
-0 -1 -3 -3 -0 -2 -2 -0 -0 -1 1 1 -1 -0 1 -1 -0 -0 -0 0 -2 -1 -3 -3 -1 -1 -2 -2 -1 -0 1 0 -1 0 0 -1 -0 -1 -1 -2 0 -0 -1
5 7 2 -1 -2 -1 -1 0 1 1 2 1 2 1 0 -0 -1 -0 1 2 -3 -1 -4 -2 -1 -1 -1 -3 -1 -1 -0 -1 -1 -0 -0 0 0 -0 1 0 -0 -1 -1
-3 8 5 3 -1 -1 1 0 1 1 1 2 3 2 2 1 -1 -2 1 1 -1 0 -3 -3 -1 0 -0 -4 -0 -1 -2 -1 -1 -0 -1 -1 -0 -1 0 -1 -1 -0 -1
-1 -4 3 2 1 3 1 1 2 3 1 2 2 3 2 2 0 -2 -1 -1 -0 -0 1 -1 -1 -1 1 -4 -4 -1 -2 0 -0 -0 -0 -1 -0 -1 -1 -1 -1 -1 -1
-5 6 1 -0 -1 -1 2 1 3 4 3 4 3 3 3 2 2 -0 0 0 1 -1 -2 -1 -2 -2 -2 3 -4 -1 -1 -1 -0 -0 -1 -1 -1 -1 -0 -0 -1 -2 -1
15 9 7 2 -1 -2 -1 -2 -1 1 3 3 2 3 2 2 2 -0 0 -1 -2 -0 -0 -1 -2 -2 -2 -2 1 -4 -0 -1 -2 -2 -1 -1 -1 -1 -1 -2 -2 -1 -2
22 18 7 3 1 4 1 -1 -2 1 2 0 1 2 3 2 1 1 1 -1 -0 -1 -1 0 -1 -1 -1 -2 -2 0 -4 -1 -3 -1 -3 -1 -2 -2 -1 -1 -1 -1 -0
-21 -30 14 9 1 1 1 3 1 -0 2 2 1 5 4 3 2 1 1 -0 1 -2 1 -0 -2 -1 -3 -2 -3 -1 -0 -3 -3 -1 -2 -1 -1 -1 -2 -2 -1 -1 -1
10 60 46 2 7 4 2 -3 1 2 -0 0 2 1 0 -1 -1 -0 2 -1 3 -0 -1 -0 -0 -1 -3 -2 -2 -0 -1 -0 -1 -5 -3 -2 -2 0 -2 -1 -0 -1 -2
-8 5 8 24 -4 20 -0 9 -1 -3 2 -2 -1 3 5 2 1 1 1 -0 1 -2 -0 -1 -1 -0 -1 -0 -2 -3 -1 -1 1 0 -1 -3 -4 -4 -1 -2 -1 -3 -2
5 3 16 59 43 13 22 39 8 -2 2 3 3 3 2 2 3 2 1 -0 3 1 -0 2 1 -1 -3 1 -0 -2 -1 -1 -1 -0 -2 -3 -1 -2 -2 -4 -3 -2 -1
5 3 11 -2 78 6 18 3 9 3 -0 -1 1 4 1 -1 -2 0 2 -0 1 0 -0 -0 1 -0 -1 -2 -0 -1 -1 -3 -1 -0 1 -1 -3 -3 -2 -1 -0 -2 -2
3 6 1 9 -2 16 -4 52 14 16 5 6 4 -4 -5 -1 -1 -4 -6 -5 -2 -1 -5 -1 -1 0 0 -2 -1 0 -1 0 -0 -3 -3 1 0 -1 -2 -3 -4 -1 -2
-2 3 2 4 -8 6 -3 1 33 -6 -9 9 -18 -13 3 0 3 -1 0 -2 0 -3 -1 0 4 -0 -2 1 1 1 -1 -1 -3 1 -3 0 -1 -0 -2 1 0 2 -1
-5 -8 -4 3 -1 -3 -12 62 -9 11 27 10 7 13 2 -2 4 -1 -4 -1 -0 -4 -3 1 -1 3 1 -3 -2 -0 1 -1 -1 -2 -2 1 -2 -1 -1 -3 -1 0 0
1 2 -3 -1 3 3 0 3 0 -9 5 10 16 19 9 4 2 3 5 -2 -6 -1 2 -2 11 2 -1 2 4 4 -1 -0 0 -0 1 -1 0 -3 1 -1 2 -1 0
Height
5856 5858 5859 5861 5863 5865 5866 5867 5869 5871 5872 5874 5875 5875 5876 5876 5876 5876 5876 5875 5875 5875 5875 5875 5875 5875 5875 5875 5875 5875 5874 5874 5874 5873 5872 5871 5870 5869 5868 5866 5865 5864 5863
5854 5856 5857 5859 5861 5863 5864 5866 5867 5869 5871 5873 5874 5875 5876 5876 5876 5876 5876 5876 5876 5876 5875 5875 5875 5875 5875 5875 5875 5875 5875 5874 5873 5873 5872 5871 5870 5869 5867 5866 5865 5864 5862
5851 5854 5855 5857 5859 5861 5863 5864 5866 5868 5870 5872 5873 5874 5875 5876 5876 5876 5876 5876 5876 5876 5876 5876 5876 5876 5875 5875 5875 5874 5874 5873 5872 5872 5871 5870 5869 5868 5867 5866 5864 5863 5862
5848 5851 5853 5855 5857 5859 5861 5863 5865 5867 5869 5871 5872 5874 5875 5875 5876 5876 5876 5876 5876 5875 5876 5876 5876 5876 5875 5875 5874 5874 5873 5873 5872 5871 5870 5869 5868 5867 5866 5865 5864 5862 5861
5845 5847 5849 5852 5854 5856 5858 5860 5863 5865 5868 5869 5871 5873 5874 5874 5875 5875 5875 5875 5875 5875 5875 5875 5875 5875 5876 5874 5874 5873 5873 5872 5871 5869 5869 5868 5867 5866 5865 5864 5863 5861 5859
5841 5843 5846 5848 5851 5854 5856 5858 5861 5863 5866 5868 5870 5871 5872 5873 5874 5874 5874 5874 5874 5874 5874 5874 5875 5875 5875 5874 5873 5872 5871 5870 5870 5869 5867 5867 5866 5865 5863 5862 5861 5860 5858
5835 5839 5842 5845 5848 5851 5853 5856 5858 5861 5863 5866 5868 5870 5871 5872 5872 5872 5873 5873 5873 5873 5874 5874 5873 5873 5874 5872 5871 5871 5870 5869 5868 5868 5866 5865 5864 5863 5862 5861 5859 5858 5856
5830 5834 5837 5840 5844 5847 5850 5853 5855 5858 5861 5863 5866 5867 5869 5870 5870 5871 5871 5871 5871 5872 5872 5872 5872 5872 5872 5870 5869 5869 5868 5866 5866 5865 5865 5863 5862 5861 5860 5858 5857 5855 5854
5824 5829 5832 5836 5839 5843 5846 5849 5853 5855 5858 5860 5863 5864 5866 5868 5868 5869 5869 5869 5869 5870 5870 5870 5870 5870 5869 5868 5868 5867 5866 5865 5864 5863 5862 5861 5860 5859 5857 5856 5854 5853 5851
5817 5822 5826 5830 5835 5838 5842 5845 5848 5851 5854 5857 5859 5861 5863 5865 5866 5867 5867 5867 5868 5869 5869 5868 5868 5867 5867 5865 5865 5864 5863 5861 5860 5860 5859 5858 5857 5856 5854 5853 5851 5849 5848
5808 5815 5820 5824 5829 5833 5837 5841 5844 5847 5850 5854 5856 5858 5860 5861 5862 5864 5865 5865 5865 5867 5867 5866 5865 5864 5864 5863 5862 5860 5859 5858 5857 5856 5855 5854 5853 5852 5851 5849 5847 5846 5844
5801 5809 5814 5819 5824 5828 5832 5836 5840 5843 5846 5850 5853 5855 5856 5857 5859 5860 5861 5862 5862 5864 5864 5864 5863 5862 5861 5859 5858 5857 5856 5854 5853 5852 5851 5850 5849 5848 5846 5845 5843 5841 5840
5794 5800 5806 5812 5817 5822 5826 5830 5835 5838 5842 5845 5849 5851 5853 5854 5855 5856 5858 5859 5859 5861 5861 5860 5860 5859 5858 5856 5855 5854 5852 5851 5849 5848 5847 5846 5844 5843 5841 5840 5838 5836 5835
5784 5793 5798 5804 5809 5815 5820 5825 5829 5833 5836 5840 5844 5846 5848 5850 5851 5853 5854 5855 5856 5857 5857 5856 5856 5855 5855 5853 5851 5850 5848 5846 5845 5843 5842 5841 5840 5838 5836 5835 5833 5832 5830
5776 5785 5791 5796 5801 5808 5814 5818 5823 5827 5830 5835 5838 5841 5843 5845 5847 5848 5849 5851 5852 5852 5852 5851 5851 5850 5850 5849 5847 5846 5844 5843 5841 5839 5837 5836 5835 5833 5832 5830 5828 5827 5824
5767 5775 5782 5787 5793 5800 5806 5810 5815 5819 5823 5827 5831 5834 5838 5840 5841 5843 5844 5846 5847 5847 5847 5847 5846 5846 5845 5844 5843 5842 5840 5838 5836 5834 5833 5831 5830 5828 5826 5824 5822 5821 5819
5753 5764 5773 5778 5784 5790 5797 5802 5807 5811 5815 5819 5824 5827 5830 5833 5836 5837 5838 5840 5841 5842 5843 5842 5841 5841 5840 5839 5838 5837 5835 5833 5831 5829 5827 5826 5824 5822 5820 5818 5816 5814 5813
5740 5749 5763 5770 5780 5785 5789 5794 5799 5804 5809 5813 5817 5821 5823 5826 5829 5831 5832 5834 5835 5836 5836 5837 5836 5835 5834 5834 5832 5831 5830 5827 5825 5823 5821 5819 5817 5815 5813 5811 5809 5807 5805
5729 5736 5751 5763 5770 5776 5780 5786 5792 5796 5799 5804 5810 5814 5817 5819 5821 5824 5826 5828 5829 5830 5830 5830 5830 5829 5828 5827 5825 5824 5823 5821 5819 5817 5814 5812 5810 5808 5806 5803 5801 5799 5796
5727 5732 5741 5751 5763 5767 5771 5775 5780 5788 5794 5798 5801 5806 5810 5812 5814 5817 5819 5820 5821 5822 5823 5823 5823 5822 5822 5820 5818 5816 5815 5813 5811 5809 5806 5805 5802 5800 5797 5795 5793 5790 5788
5723 5728 5735 5728 5740 5754 5753 5763 5774 5779 5784 5788 5793 5795 5801 5805 5807 5809 5811 5813 5814 5815 5816 5816 5815 5815 5814 5813 5811 5809 5807 5805 5802 5800 5798 5796 5794 5792 5789 5786 5784 5781 5779
5717 5725 5729 5734 5738 5744 5750 5757 5764 5769 5774 5781 5786 5789 5791 5794 5796 5799 5802 5804 5805 5806 5807 5807 5808 5807 5806 5804 5803 5800 5798 5797 5794 5792 5789 5786 5784 5782 5779 5777 5774 5771 5769
5710 5718 5722 5729 5734 5739 5747 5748 5753 5760 5769 5770 5775 5780 5781 5783 5787 5790 5791 5793 5796 5798 5798 5798 5798 5798 5797 5796 5794 5792 5788 5786 5783 5781 5779 5777 5773 5771 5769 5767 5764 5761 5758
5704 5709 5714 5721 5728 5736 5743 5744 5750 5753 5756 5760 5764 5769 5774 5776 5780 5783 5782 5783 5785 5787 5789 5789 5789 5788 5787 5785 5783 5780 5778 5776 5772 5771 5768 5766 5762 5760 5758 5755 5753 5750 5747
5696 5706 5711 5718 5723 5730 5739 5735 5745 5750 5752 5758 5760 5762 5765 5770 5772 5772 5773 5775 5776 5778 5778 5777 5777 5776 5775 5774 5773 5769 5767 5765 5762 5760 5757 5755 5752 5749 5747 5745 5742 5738 5734
5692 5700 5707 5712 5717 5723 5728 5733 5739 5745 5749 5746 5751 5752 5758 5758 5759 5762 5763 5764 5766 5767 5766 5765 5764 5765 5763 5761 5759 5757 5755 5753 5750 5748 5745 5742 5739 5737 5734 5733 5730 5727 5724